User: anonymous   Login
Location: Fort Wayne
(41.1310°N, 85.1290°W)
Time: 12:57:23
(UTC-04:00)
Language:

OPAL - Orbit

View from above orbital plane
View from above orbital plane
View from above satellite
View from above satellite

Ground track
Ground track

The orbit data is extracted from the following two-line orbital elements,

1 26063U 00004C   16272.91424744  .00000023  00000-0  27958-4 0  9994
2 26063 100.1966 222.2178 0036176 326.0877  33.7991 14.36633866873862
Epoch (UTC): 28 September 2016 21:56:30
Eccentricity: 0.0036176
inclination: 100.1966°
perigee height: 744 km
apogee height: 795 km
right ascension of ascending node: 222.2178°
argument of perigee: 326.0877°
revolutions per day: 14.36633866
mean anomaly at epoch: 33.7991°
orbit number at epoch: 87386

The dashed part of the orbit path shows where the satellite is in the earth's shadow,  

DLR